Christchurch, New Zealand

9:39 AM NZDT on March 25, 2017 (GMT +1300)
Christchurch International

Weather History for NZCH - January, 2013

Change the Weather History Date:

Sunday, January 6, 2013

  Actual Average Record
Temperature  
Mean Temperature 63 °F -  
Max Temperature 71 °F 67 °F 84 °F (2011)
Min Temperature 55 °F 51 °F 42 °F (2017)
Degree Days  
Heating Degree Days 2    
Growing Degree Days 13 (Base 50)    
Moisture  
Dew Point 54 °F    
Average Humidity 74    
Maximum Humidity 100    
Minimum Humidity 50    
Precipitation  
Precipitation 0.00 in - - ()
Sea Level Pressure  
Sea Level Pressure 29.87 in    
Wind  
Wind Speed 9 mph ()    
Max Wind Speed 21 mph    
Max Gust Speed 33 mph    
Visibility 6.2 miles    
Events      
Averages and records for this station are not official NWS values.
T = Trace of Precipitation, MM = Missing Value Source: Averaged Metar Reports

Daily Weather History Graph

Daily Weather History Graph

Search for Another Location

Airport or City:

Trip Planner

Search our weather history database for the weather conditions in past years. The results will help you decide how hot, cold, wet, or windy it might be!

Date:

Astronomy

Jan. 06, 2013 Rise Set
Actual Time 5:57 AM NZDT 9:13 PM NZDT
Civil Twilight 5:22 AM NZDT 9:48 PM NZDT
Nautical Twilight 4:36 AM NZDT 10:33 PM NZDT
Astronomical Twilight 3:40 AM NZDT 11:29 PM NZDT
Moon 12:57 AM NZDT (1/6) 2:54 PM NZDT (1/6)
Length of Visible Light 16h 26m
Length of Day
15h 16m
Last Quarter, 41% of the Moon is Illuminated
Jan 6
Last Quarter
Jan 12
New
Jan 19
First Quarter
Jan 27
Full
Feb 4
Last Quarter

Hourly Weather History & Observations

Time (NZDT) Temp. Dew Point Humidity Pressure Visibility Wind Dir Wind Speed Gust Speed Precip Events Conditions
12:00 AM 60.8 °F 55.4 °F 82% 29.86 in - East 13.8 mph - N/A   Clear
1:00 AM 60.8 °F 55.4 °F 82% 29.86 in - East 12.7 mph - N/A   Clear
2:00 AM 60.8 °F 55.4 °F 82% 29.83 in 6.2 mi East 11.5 mph - N/A   Mostly Cloudy
3:00 AM 59.0 °F 55.4 °F 88% 29.80 in - NE 6.9 mph - N/A   Clear
4:00 AM 59.0 °F 55.4 °F 88% 29.80 in - North 3.5 mph - N/A   Clear
5:00 AM 55.4 °F 53.6 °F 94% 29.80 in - WNW 5.8 mph - N/A   Clear
6:00 AM 55.4 °F 55.4 °F 100% 29.80 in - WNW 4.6 mph - N/A   Clear
7:00 AM 59.0 °F 57.2 °F 94% 29.83 in - West 3.5 mph - N/A   Clear
8:00 AM 64.4 °F 57.2 °F 77% 29.86 in - SW 8.1 mph - N/A   Clear
9:00 AM 69.8 °F 57.2 °F 64% 29.89 in 6.2 mi SW 20.7 mph 33.4 mph N/A   Partly Cloudy
2:00 PM 71.6 °F 51.8 °F 50% 29.95 in 6.2 mi South 19.6 mph - N/A   Partly Cloudy
3:00 PM 69.8 °F 51.8 °F 53% 29.92 in 6.2 mi South 19.6 mph - N/A   Partly Cloudy
4:00 PM 69.8 °F 51.8 °F 53% 29.92 in 6.2 mi SSW 16.1 mph - N/A   Mostly Cloudy
5:00 PM 66.2 °F 53.6 °F 64% 29.92 in 6.2 mi SSW 16.1 mph - N/A   Mostly Cloudy
6:00 PM 64.4 °F 51.8 °F 64% 29.92 in 6.2 mi SSW 12.7 mph - N/A   Mostly Cloudy
7:00 PM 64.4 °F 51.8 °F 64% 29.89 in 6.2 mi WSW 3.5 mph - N/A   Mostly Cloudy
8:00 PM 64.4 °F 53.6 °F 68% 29.89 in 6.2 mi NNE 8.1 mph - N/A   Mostly Cloudy
9:00 PM 62.6 °F 51.8 °F 68% 29.89 in 6.2 mi NNE 6.9 mph - N/A   Mostly Cloudy
10:00 PM 60.8 °F 50.0 °F 68% 29.89 in 6.2 mi North 5.8 mph - N/A   Mostly Cloudy
11:00 PM 60.8 °F 50.0 °F 68% 29.86 in 6.2 mi NNE 9.2 mph - N/A   Mostly Cloudy